Language: 


Des rapports , des résumés tant et plus, au choix de chacun....


Données Historiques de Météogheer
Journalier Rapport pour Décembre 26, 2017 Unitée:  Métrique    Impériale   Les deux
Suivant Jour »
Journalier Hebdomadaire Mensuel Annuel Sur mesure
  Max: Min: Moyenne:
Température: 7.8 °C 5.3 °C 6.7 °C
Point de rosée: 7.0 °C 5.0 °C 5.7 °C
Humidité: 98% 81% 91%
Vent: 36.7km/h 6.9km/h 18.7km/h
Rafales: 42.8km/h - -
Vent- - SW
Pression: 1002.9 hPa 997.9 hPa -
Pluie: 4.1 mm    
Historical Graphs
 
 
Données tabulaires pour Décembre 26, 2017
Heure Température Point de rosée Pression Vent Vent Rafales Humidité Pluie Taux (Horaire) Conditions
00:01 5.6 °C 5.0 °C 1002.9 hPa South 32.3 km/h 37.8 km/h 94% 0.0 mm
00:03 5.6 °C 5.0 °C 1002.9 hPa SSW 31.4 km/h 38.1 km/h 94% 0.0 mm
00:05 5.6 °C 5.0 °C 1002.9 hPa SSW 20.1 km/h 38.1 km/h 94% 0.0 mm
00:10 5.5 °C 5.0 °C 1002.9 hPa SSW 17.2 km/h 38.1 km/h 94% 0.0 mm
00:11 5.5 °C 5.0 °C 1002.9 hPa South 25.3 km/h 38.1 km/h 94% 0.0 mm
00:14 5.5 °C 5.0 °C 1002.9 hPa South 22.7 km/h 37.5 km/h 94% 0.0 mm
00:19 5.5 °C 5.0 °C 1002.9 hPa South 23.8 km/h 40.7 km/h 94% 0.0 mm
00:20 5.5 °C 5.0 °C 1002.9 hPa SSE 14.0 km/h 40.7 km/h 94% 0.0 mm
00:25 5.4 °C 5.0 °C 1002.9 hPa SSE 24.5 km/h 40.7 km/h 95% 0.0 mm
00:26 5.4 °C 5.0 °C 1002.9 hPa SSW 17.7 km/h 40.7 km/h 95% 0.0 mm
00:31 5.4 °C 5.0 °C 1001.9 hPa SSE 21.2 km/h 37.0 km/h 95% 0.0 mm
00:36 5.4 °C 5.0 °C 1001.9 hPa SSW 25.3 km/h 40.7 km/h 95% 0.0 mm
00:38 5.4 °C 5.0 °C 1001.9 hPa South 20.1 km/h 40.7 km/h 95% 0.0 mm
00:39 5.4 °C 5.0 °C 1001.9 hPa South 27.4 km/h 40.7 km/h 95% 0.0 mm
00:44 5.4 °C 5.0 °C 1001.9 hPa South 13.7 km/h 40.7 km/h 95% 0.0 mm
00:49 5.4 °C 5.0 °C 1001.9 hPa South 21.2 km/h 35.6 km/h 95% 0.0 mm
00:51 5.4 °C 5.0 °C 1001.9 hPa South 26.2 km/h 30.9 km/h 95% 0.0 mm
00:52 5.4 °C 5.0 °C 1001.9 hPa South 27.0 km/h 30.9 km/h 95% 0.0 mm
00:57 5.4 °C 5.0 °C 1000.9 hPa SSW 19.8 km/h 30.9 km/h 95% 0.0 mm
01:02 5.4 °C 5.0 °C 1000.9 hPa South 20.9 km/h 39.6 km/h 95% 0.0 mm
01:05 5.4 °C 5.0 °C 1000.9 hPa South 17.7 km/h 39.6 km/h 95% 0.0 mm
01:10 5.4 °C 5.0 °C 1000.9 hPa South 17.7 km/h 30.9 km/h 95% 0.0 mm
01:13 5.4 °C 5.0 °C 1000.9 hPa SSW 16.9 km/h 31.4 km/h 95% 0.0 mm
01:14 5.4 °C 5.0 °C 1000.9 hPa SSE 23.8 km/h 31.4 km/h 95% 0.0 mm
01:19 5.4 °C 5.0 °C 1000.9 hPa South 17.2 km/h 31.7 km/h 95% 0.0 mm
01:24 5.4 °C 5.0 °C 1000.9 hPa SSE 17.7 km/h 34.6 km/h 95% 0.0 mm
01:27 5.4 °C 5.0 °C 999.9 hPa South 24.5 km/h 36.7 km/h 95% 0.0 mm
01:28 5.4 °C 5.0 °C 999.9 hPa SSE 34.3 km/h 36.7 km/h 95% 0.0 mm
01:33 5.4 °C 5.0 °C 999.9 hPa South 21.2 km/h 36.7 km/h 95% 0.0 mm
01:34 5.4 °C 5.0 °C 999.9 hPa SW 24.5 km/h 36.7 km/h 95% 0.0 mm
01:38 5.4 °C 5.0 °C 999.9 hPa South 16.3 km/h 34.3 km/h 95% 0.0 mm
01:39 5.4 °C 5.0 °C 999.9 hPa SSW 13.7 km/h 32.3 km/h 95% 0.0 mm
01:44 5.5 °C 5.0 °C 999.9 hPa South 27.0 km/h 34.6 km/h 95% 0.0 mm
01:45 5.5 °C 5.0 °C 999.9 hPa SSW 15.8 km/h 34.6 km/h 95% 0.0 mm
01:50 5.5 °C 5.0 °C 999.9 hPa SSW 36.7 km/h 36.7 km/h 95% 0.0 mm
01:54 5.6 °C 5.0 °C 999.9 hPa SSW 28.0 km/h 36.7 km/h 94% 0.0 mm
01:57 5.6 °C 5.0 °C 999.9 hPa SW 12.2 km/h 36.7 km/h 94% 0.0 mm
02:02 5.6 °C 5.0 °C 999.9 hPa WSW 20.6 km/h 30.6 km/h 94% 0.0 mm
02:07 5.7 °C 5.0 °C 999.9 hPa SSW 15.8 km/h 28.0 km/h 94% 0.0 mm
02:12 5.7 °C 5.0 °C 999.9 hPa SW 16.3 km/h 29.1 km/h 94% 0.0 mm
02:17 5.8 °C 5.0 °C 999.9 hPa SSW 12.6 km/h 30.2 km/h 94% 0.0 mm
02:18 5.8 °C 5.0 °C 999.9 hPa SSW 19.8 km/h 30.2 km/h 94% 0.0 mm
02:23 5.8 °C 6.0 °C 999.9 hPa WSW 20.6 km/h 23.3 km/h 95% 0.0 mm
02:24 5.8 °C 6.0 °C 999.9 hPa SSW 23.3 km/h 23.3 km/h 95% 0.0 mm
02:27 5.8 °C 5.0 °C 998.9 hPa SSW 15.8 km/h 23.8 km/h 94% 0.0 mm
02:32 5.9 °C 6.0 °C 998.9 hPa SSW 20.6 km/h 23.8 km/h 95% 0.0 mm
02:37 5.9 °C 6.0 °C 998.9 hPa SSW 20.6 km/h 24.8 km/h 95% 0.0 mm
02:42 6.0 °C 5.0 °C 998.9 hPa SSW 23.3 km/h 25.6 km/h 94% 0.0 mm
02:44 6.0 °C 5.0 °C 998.9 hPa SSW 20.9 km/h 28.5 km/h 94% 0.0 mm
02:49 6.0 °C 5.0 °C 998.9 hPa South 15.4 km/h 33.8 km/h 94% 0.0 mm
02:52 6.1 °C 5.0 °C 998.9 hPa South 23.8 km/h 33.8 km/h 94% 0.0 mm
02:57 6.2 °C 6.0 °C 998.9 hPa SSW 24.8 km/h 33.8 km/h 94% 0.0 mm
03:00 6.3 °C 6.0 °C 998.9 hPa SSW 16.9 km/h 28.5 km/h 94% 0.0 mm
03:05 6.3 °C 6.0 °C 998.9 hPa SSW 20.6 km/h 28.5 km/h 94% 0.0 mm
03:10 6.4 °C 6.0 °C 999.9 hPa SSW 28.5 km/h 32.3 km/h 93% 0.0 mm
03:11 6.4 °C 6.0 °C 999.9 hPa SW 27.4 km/h 32.3 km/h 93% 0.0 mm
03:16 6.5 °C 6.0 °C 999.9 hPa WSW 24.8 km/h 35.6 km/h 93% 0.0 mm
03:21 6.6 °C 6.0 °C 999.9 hPa SW 23.0 km/h 35.6 km/h 93% 0.0 mm
03:22 6.6 °C 6.0 °C 999.9 hPa SSW 24.5 km/h 35.6 km/h 93% 0.0 mm
03:27 6.7 °C 6.0 °C 998.9 hPa SSW 21.2 km/h 28.8 km/h 93% 0.0 mm
03:28 6.7 °C 6.0 °C 998.9 hPa SW 23.0 km/h 28.8 km/h 93% 0.0 mm
03:30 6.7 °C 6.0 °C 998.9 hPa SSW 20.9 km/h 31.7 km/h 93% 0.0 mm
03:33 6.8 °C 6.0 °C 998.9 hPa South 21.2 km/h 35.6 km/h 93% 0.0 mm
03:38 6.8 °C 6.0 °C 998.9 hPa SSW 17.7 km/h 35.6 km/h 93% 0.0 mm
03:42 6.8 °C 6.0 °C 998.9 hPa WSW 28.0 km/h 30.2 km/h 93% 0.0 mm
03:46 7.0 °C 6.0 °C 998.9 hPa SW 22.4 km/h 42.8 km/h 93% 0.0 mm
03:51 7.0 °C 6.0 °C 998.9 hPa WSW 16.6 km/h 42.8 km/h 93% 0.0 mm
03:52 7.0 °C 6.0 °C 998.9 hPa SW 20.1 km/h 42.8 km/h 93% 0.0 mm
03:54 7.0 °C 6.0 °C 998.9 hPa WSW 24.8 km/h 42.8 km/h 93% 0.0 mm
03:57 7.0 °C 6.0 °C 998.9 hPa SW 23.8 km/h 31.4 km/h 93% 0.0 mm
04:02 6.9 °C 6.0 °C 998.9 hPa SSW 21.2 km/h 31.4 km/h 93% 0.0 mm
04:05 6.9 °C 6.0 °C 998.9 hPa WSW 24.5 km/h 31.7 km/h 94% 0.0 mm
04:06 6.9 °C 6.0 °C 998.9 hPa WSW 28.0 km/h 31.7 km/h 94% 0.0 mm
04:12 6.8 °C 6.0 °C 998.9 hPa WSW 19.8 km/h 31.7 km/h 94% 0.0 mm
04:17 6.8 °C 6.0 °C 998.9 hPa WSW 16.6 km/h 32.8 km/h 95% 0.0 mm
04:18 6.8 °C 6.0 °C 998.9 hPa WSW 16.6 km/h 32.8 km/h 95% 0.0 mm
04:19 6.8 °C 6.0 °C 998.9 hPa WSW 24.8 km/h 32.8 km/h 95% 0.3 mm
04:24 6.7 °C 6.0 °C 998.9 hPa WSW 20.6 km/h 32.8 km/h 96% 0.3 mm
04:25 6.7 °C 6.0 °C 998.9 hPa WSW 24.8 km/h 31.4 km/h 96% 0.3 mm
04:26 6.7 °C 6.0 °C 997.9 hPa WSW 17.7 km/h 31.4 km/h 96% 0.3 mm
04:31 6.6 °C 6.0 °C 997.9 hPa WSW 16.6 km/h 31.4 km/h 96% 0.3 mm
04:36 6.6 °C 6.0 °C 997.9 hPa WSW 24.8 km/h 30.9 km/h 97% 0.3 mm
04:38 6.6 °C 6.0 °C 997.9 hPa WSW 17.7 km/h 30.9 km/h 97% 0.3 mm
04:39 6.5 °C 6.0 °C 997.9 hPa WSW 17.2 km/h 30.9 km/h 97% 0.3 mm
04:44 6.5 °C 6.0 °C 998.9 hPa WSW 17.2 km/h 30.9 km/h 97% 0.3 mm
04:49 6.5 °C 6.0 °C 998.9 hPa WSW 19.5 km/h 22.7 km/h 97% 0.3 mm
04:54 6.5 °C 6.0 °C 998.9 hPa WSW 13.7 km/h 24.8 km/h 97% 0.3 mm
04:56 6.5 °C 6.0 °C 998.9 hPa WSW 10.5 km/h 24.8 km/h 97% 0.3 mm
04:57 6.5 °C 6.0 °C 998.9 hPa WSW 21.2 km/h 24.8 km/h 97% 0.3 mm
05:02 6.4 °C 6.0 °C 998.9 hPa WSW 17.2 km/h 24.8 km/h 97% 0.3 mm
05:05 6.4 °C 6.0 °C 998.9 hPa WSW 15.4 km/h 21.2 km/h 98% 0.3 mm
05:10 6.4 °C 6.0 °C 998.9 hPa SW 13.7 km/h 21.2 km/h 98% 0.3 mm
05:15 6.4 °C 6.0 °C 998.9 hPa WSW 13.0 km/h 26.2 km/h 98% 0.5 mm
05:16 6.4 °C 6.0 °C 998.9 hPa SW 17.2 km/h 26.2 km/h 98% 0.5 mm
05:21 6.4 °C 6.0 °C 998.9 hPa WSW 21.2 km/h 26.2 km/h 98% 0.3 mm
05:26 6.4 °C 6.0 °C 998.9 hPa SW 15.4 km/h 21.2 km/h 98% 0.3 mm
05:31 6.3 °C 6.0 °C 998.9 hPa WSW 17.2 km/h 20.9 km/h 98% 0.3 mm
05:36 6.3 °C 6.0 °C 998.9 hPa WSW 16.6 km/h 19.8 km/h 98% 0.3 mm
05:40 6.3 °C 6.0 °C 998.9 hPa SW 10.1 km/h 20.6 km/h 98% 0.3 mm
05:44 6.3 °C 6.0 °C 998.9 hPa WSW 12.2 km/h 21.2 km/h 98% 0.3 mm
05:46 6.3 °C 6.0 °C 998.9 hPa WSW 12.2 km/h 21.2 km/h 98% 0.3 mm
05:51 6.3 °C 6.0 °C 998.9 hPa WSW 17.2 km/h 21.2 km/h 98% 0.3 mm
05:53 6.3 °C 6.0 °C 998.9 hPa SSW 20.1 km/h 20.6 km/h 98% 0.3 mm
05:58 6.3 °C 6.0 °C 998.9 hPa SW 11.9 km/h 20.6 km/h 98% 0.3 mm
06:01 6.3 °C 6.0 °C 998.9 hPa WSW 13.0 km/h 27.7 km/h 98% 0.3 mm
06:05 6.3 °C 6.0 °C 998.9 hPa SW 11.9 km/h 27.7 km/h 98% 0.3 mm
06:08 6.3 °C 6.0 °C 998.9 hPa SW 11.1 km/h 27.7 km/h 98% 0.3 mm
06:13 6.2 °C 6.0 °C 998.9 hPa SSW 13.0 km/h 17.7 km/h 98% 0.0 mm
06:18 6.1 °C 6.0 °C 998.9 hPa SW 11.9 km/h 15.8 km/h 98% 0.0 mm
06:20 6.1 °C 6.0 °C 998.9 hPa WSW 11.9 km/h 15.8 km/h 98% 0.0 mm
06:25 6.1 °C 6.0 °C 998.9 hPa WSW 10.1 km/h 16.9 km/h 98% 0.0 mm
06:27 6.1 °C 6.0 °C 998.9 hPa SW 9.3 km/h 16.9 km/h 98% 0.0 mm
06:32 6.0 °C 6.0 °C 998.9 hPa WSW 10.1 km/h 16.9 km/h 97% 0.0 mm
06:37 6.0 °C 6.0 °C 998.9 hPa WSW 12.6 km/h 14.0 km/h 97% 0.0 mm
06:38 6.0 °C 6.0 °C 998.9 hPa WSW 15.4 km/h 15.4 km/h 97% 0.0 mm
06:39 6.0 °C 6.0 °C 998.9 hPa WSW 12.2 km/h 16.9 km/h 97% 0.0 mm
06:44 5.9 °C 6.0 °C 998.9 hPa SW 13.7 km/h 19.1 km/h 97% 0.0 mm
06:45 5.9 °C 6.0 °C 998.9 hPa WSW 13.0 km/h 19.1 km/h 97% 0.0 mm
06:46 5.9 °C 6.0 °C 998.9 hPa WSW 13.7 km/h 19.1 km/h 97% 0.0 mm
06:51 5.8 °C 6.0 °C 998.9 hPa WSW 20.6 km/h 31.7 km/h 96% 0.0 mm
06:52 5.8 °C 6.0 °C 998.9 hPa WSW 24.8 km/h 31.7 km/h 96% 0.0 mm
06:57 5.9 °C 6.0 °C 998.9 hPa WSW 15.8 km/h 33.8 km/h 95% 0.0 mm
07:02 5.8 °C 6.0 °C 998.9 hPa WSW 25.6 km/h 31.4 km/h 95% 0.0 mm
07:03 5.8 °C 6.0 °C 998.9 hPa WSW 23.0 km/h 29.1 km/h 95% 0.0 mm
07:04 5.8 °C 6.0 °C 998.9 hPa WSW 24.8 km/h 28.5 km/h 95% 0.0 mm
07:09 5.8 °C 6.0 °C 998.9 hPa WSW 13.0 km/h 28.5 km/h 95% 0.0 mm
07:12 5.8 °C 6.0 °C 998.9 hPa WSW 16.9 km/h 28.5 km/h 95% 0.0 mm
07:17 5.8 °C 6.0 °C 998.9 hPa WSW 17.2 km/h 20.6 km/h 95% 0.0 mm
07:18 5.7 °C 5.0 °C 998.9 hPa WSW 17.7 km/h 20.1 km/h 95% 0.0 mm
07:19 5.7 °C 5.0 °C 998.9 hPa WSW 14.0 km/h 20.1 km/h 95% 0.0 mm
07:24 5.7 °C 5.0 °C 998.9 hPa WSW 16.6 km/h 17.7 km/h 95% 0.0 mm
07:25 5.7 °C 5.0 °C 998.9 hPa SW 13.7 km/h 17.7 km/h 95% 0.0 mm
07:29 5.7 °C 5.0 °C 998.9 hPa SW 13.0 km/h 17.2 km/h 95% 0.0 mm
07:32 5.7 °C 5.0 °C 998.9 hPa WSW 13.7 km/h 17.7 km/h 95% 0.0 mm
07:37 5.6 °C 5.0 °C 998.9 hPa WSW 11.9 km/h 17.7 km/h 95% 0.0 mm
07:42 5.6 °C 5.0 °C 998.9 hPa SSW 16.3 km/h 17.2 km/h 95% 0.0 mm
07:44 5.6 °C 5.0 °C 998.9 hPa SW 12.2 km/h 17.2 km/h 95% 0.0 mm
07:47 5.5 °C 5.0 °C 998.9 hPa SSW 10.5 km/h 16.3 km/h 95% 0.0 mm
07:49 5.5 °C 5.0 °C 998.9 hPa SW 10.1 km/h 16.3 km/h 95% 0.0 mm
07:53 5.6 °C 5.0 °C 998.9 hPa SSW 12.2 km/h 16.3 km/h 95% 0.0 mm
07:54 5.6 °C 6.0 °C 998.9 hPa SSW 11.9 km/h 16.3 km/h 96% 0.0 mm
08:00 5.6 °C 6.0 °C 997.9 hPa SSW 10.5 km/h 16.3 km/h 96% 0.0 mm
08:01 5.6 °C 6.0 °C 997.9 hPa SW 12.6 km/h 16.3 km/h 96% 0.0 mm
08:06 5.5 °C 6.0 °C 997.9 hPa SW 9.7 km/h 16.6 km/h 96% 0.0 mm
08:07 5.5 °C 6.0 °C 997.9 hPa SW 14.3 km/h 19.1 km/h 97% 0.0 mm
08:12 5.5 °C 6.0 °C 997.9 hPa SW 11.9 km/h 19.1 km/h 97% 0.0 mm
08:13 5.5 °C 6.0 °C 997.9 hPa WSW 14.0 km/h 19.1 km/h 97% 0.0 mm
08:14 5.5 °C 6.0 °C 997.9 hPa WSW 25.3 km/h 25.3 km/h 97% 0.0 mm
08:19 5.5 °C 6.0 °C 997.9 hPa WSW 14.0 km/h 25.3 km/h 97% 0.0 mm
08:21 5.5 °C 6.0 °C 997.9 hPa SW 11.9 km/h 25.3 km/h 97% 0.0 mm
08:26 5.5 °C 6.0 °C 998.9 hPa SW 15.8 km/h 17.7 km/h 97% 0.0 mm
08:31 5.5 °C 6.0 °C 998.9 hPa WSW 10.5 km/h 17.7 km/h 97% 0.0 mm
08:34 5.4 °C 5.0 °C 998.9 hPa WSW 12.2 km/h 17.7 km/h 97% 0.0 mm
08:38 5.5 °C 6.0 °C 998.9 hPa WSW 13.0 km/h 17.7 km/h 97% 0.0 mm
08:40 5.5 °C 6.0 °C 998.9 hPa WSW 16.3 km/h 17.7 km/h 97% 0.0 mm
08:45 5.5 °C 6.0 °C 999.9 hPa WSW 11.6 km/h 17.7 km/h 98% 0.3 mm
08:48 5.5 °C 6.0 °C 999.9 hPa WSW 12.6 km/h 21.9 km/h 98% 0.3 mm
08:50 5.5 °C 6.0 °C 999.9 hPa WSW 10.8 km/h 21.9 km/h 98% 0.3 mm
08:54 5.4 °C 6.0 °C 999.9 hPa WSW 11.9 km/h 21.9 km/h 98% 0.3 mm
08:59 5.4 °C 6.0 °C 999.9 hPa WSW 9.7 km/h 17.2 km/h 98% 0.3 mm
09:02 5.4 °C 6.0 °C 999.9 hPa WSW 9.7 km/h 16.3 km/h 98% 0.3 mm
09:07 5.4 °C 6.0 °C 999.9 hPa SW 8.7 km/h 14.0 km/h 98% 0.3 mm
09:09 5.4 °C 6.0 °C 999.9 hPa WSW 10.1 km/h 12.6 km/h 98% 0.3 mm
09:14 5.3 °C 6.0 °C 999.9 hPa WSW 12.2 km/h 13.7 km/h 98% 0.3 mm
09:18 5.4 °C 6.0 °C 999.9 hPa WSW 12.6 km/h 16.6 km/h 98% 0.3 mm
09:20 5.4 °C 6.0 °C 999.9 hPa WSW 15.8 km/h 16.6 km/h 98% 0.3 mm
09:25 5.4 °C 6.0 °C 999.9 hPa WSW 9.7 km/h 15.8 km/h 98% 0.3 mm
09:27 5.4 °C 6.0 °C 1000.9 hPa West 7.9 km/h 15.8 km/h 98% 0.3 mm
09:32 5.4 °C 6.0 °C 1000.9 hPa WSW 6.9 km/h 12.2 km/h 98% 0.3 mm
09:33 5.4 °C 6.0 °C 1000.9 hPa WSW 10.1 km/h 11.6 km/h 98% 0.3 mm
09:38 5.4 °C 6.0 °C 1000.9 hPa SSW 10.5 km/h 11.6 km/h 98% 0.3 mm
09:39 5.5 °C 6.0 °C 1000.9 hPa WSW 13.0 km/h 15.4 km/h 98% 0.3 mm
09:40 5.5 °C 6.0 °C 1000.9 hPa WSW 9.7 km/h 15.4 km/h 98% 0.3 mm
09:45 5.6 °C 6.0 °C 1000.9 hPa West 12.2 km/h 16.3 km/h 98% 0.3 mm
09:46 5.6 °C 6.0 °C 1000.9 hPa West 15.8 km/h 16.3 km/h 98% 0.3 mm
09:49 5.6 °C 6.0 °C 1000.9 hPa WSW 12.6 km/h 16.3 km/h 98% 0.3 mm
09:53 5.6 °C 6.0 °C 1000.9 hPa WSW 9.0 km/h 16.9 km/h 98% 0.8 mm
09:58 5.4 °C 6.0 °C 1000.9 hPa WSW 10.8 km/h 16.9 km/h 98% 0.8 mm
09:59 5.4 °C 6.0 °C 1000.9 hPa SW 8.7 km/h 16.9 km/h 98% 0.8 mm
10:04 5.3 °C 6.0 °C 1000.9 hPa SW 11.6 km/h 16.3 km/h 98% 0.8 mm
10:05 5.3 °C 6.0 °C 1000.9 hPa WSW 13.7 km/h 16.9 km/h 98% 0.8 mm
10:10 5.4 °C 6.0 °C 1000.9 hPa WSW 10.5 km/h 16.9 km/h 98% 0.8 mm
10:15 5.3 °C 6.0 °C 1000.9 hPa SSW 10.1 km/h 14.0 km/h 98% 0.8 mm
10:19 5.4 °C 6.0 °C 1000.9 hPa WSW 13.7 km/h 15.4 km/h 98% 0.8 mm
10:20 5.4 °C 6.0 °C 1000.9 hPa SW 16.3 km/h 16.3 km/h 98% 0.8 mm
10:25 5.5 °C 6.0 °C 1000.9 hPa WSW 16.9 km/h 25.6 km/h 98% 0.8 mm
10:28 5.5 °C 6.0 °C 1000.9 hPa WSW 24.8 km/h 25.6 km/h 98% 0.8 mm
10:33 5.4 °C 6.0 °C 1000.9 hPa WSW 21.2 km/h 32.8 km/h 98% 1.3 mm
10:35 5.4 °C 6.0 °C 1000.9 hPa WSW 27.7 km/h 32.8 km/h 98% 1.3 mm
10:37 5.4 °C 6.0 °C 1000.9 hPa WSW 20.9 km/h 32.8 km/h 98% 1.5 mm
10:42 5.4 °C 6.0 °C 1001.9 hPa WSW 23.8 km/h 28.8 km/h 98% 2.3 mm
10:43 5.4 °C 6.0 °C 1001.9 hPa WSW 27.0 km/h 28.8 km/h 98% 2.3 mm
10:44 5.4 °C 6.0 °C 1001.9 hPa WSW 25.9 km/h 28.8 km/h 98% 2.3 mm
10:49 5.3 °C 6.0 °C 1001.9 hPa SW 20.6 km/h 28.5 km/h 98% 2.5 mm
10:51 5.3 °C 6.0 °C 1001.9 hPa SSW 24.5 km/h 28.5 km/h 98% 2.3 mm
10:54 5.3 °C 6.0 °C 1001.9 hPa WSW 16.6 km/h 28.5 km/h 98% 2.3 mm
10:57 5.3 °C 6.0 °C 1000.9 hPa WSW 16.9 km/h 24.5 km/h 98% 2.3 mm
11:02 5.4 °C 6.0 °C 1000.9 hPa SW 10.5 km/h 20.6 km/h 98% 2.3 mm
11:07 5.4 °C 6.0 °C 1000.9 hPa SSW 17.7 km/h 20.1 km/h 98% 2.3 mm
11:08 5.4 °C 6.0 °C 1000.9 hPa SW 10.1 km/h 20.1 km/h 98% 2.3 mm
11:13 5.8 °C 6.0 °C 1001.9 hPa WSW 13.7 km/h 20.1 km/h 98% 2.3 mm
11:18 5.9 °C 6.0 °C 1001.9 hPa WSW 13.7 km/h 20.1 km/h 98% 2.3 mm
11:20 5.9 °C 6.0 °C 1001.9 hPa SW 12.6 km/h 19.8 km/h 98% 2.3 mm
11:25 6.0 °C 6.0 °C 1001.9 hPa SW 11.6 km/h 16.9 km/h 98% 2.3 mm
11:26 6.0 °C 6.0 °C 1001.9 hPa SW 13.7 km/h 15.4 km/h 98% 2.5 mm
11:27 6.1 °C 6.0 °C 1001.9 hPa SW 13.7 km/h 14.0 km/h 98% 2.5 mm
11:32 6.2 °C 6.0 °C 1001.9 hPa SW 15.8 km/h 19.8 km/h 98% 1.8 mm
11:36 6.3 °C 6.0 °C 1001.9 hPa SSW 13.0 km/h 19.8 km/h 98% 1.5 mm
11:41 6.4 °C 6.0 °C 1000.9 hPa WSW 9.3 km/h 20.9 km/h 98% 1.0 mm
11:46 6.5 °C 7.0 °C 1000.9 hPa SW 16.9 km/h 20.9 km/h 98% 0.3 mm
11:51 6.6 °C 7.0 °C 1000.9 hPa WSW 17.2 km/h 24.5 km/h 98% 0.3 mm
11:55 6.7 °C 7.0 °C 1000.9 hPa SW 17.7 km/h 30.6 km/h 98% 0.3 mm
12:00 6.6 °C 7.0 °C 1000.9 hPa WSW 20.9 km/h 30.6 km/h 98% 0.3 mm
12:01 6.5 °C 7.0 °C 1000.9 hPa SW 33.5 km/h 33.5 km/h 98% 0.3 mm
12:05 6.7 °C 6.0 °C 1000.9 hPa WSW 24.5 km/h 33.5 km/h 97% 0.3 mm
12:06 6.7 °C 6.0 °C 1000.9 hPa SW 21.9 km/h 33.5 km/h 97% 0.3 mm
12:11 6.8 °C 6.0 °C 1000.9 hPa SW 16.6 km/h 33.5 km/h 97% 0.3 mm
12:16 6.9 °C 7.0 °C 1000.9 hPa WSW 28.8 km/h 28.8 km/h 96% 0.3 mm
12:17 6.9 °C 7.0 °C 1000.9 hPa WSW 19.8 km/h 28.8 km/h 96% 0.3 mm
12:21 6.8 °C 6.0 °C 1000.9 hPa WSW 17.7 km/h 31.4 km/h 96% 0.3 mm
12:23 6.8 °C 6.0 °C 1000.9 hPa WSW 14.8 km/h 33.1 km/h 96% 0.3 mm
12:28 6.8 °C 6.0 °C 1000.9 hPa SSW 21.9 km/h 33.1 km/h 95% 0.0 mm
12:30 6.8 °C 6.0 °C 1000.9 hPa WSW 20.6 km/h 33.1 km/h 95% 0.0 mm
12:35 7.0 °C 6.0 °C 1000.9 hPa WSW 14.0 km/h 30.6 km/h 94% 0.0 mm
12:36 7.0 °C 6.0 °C 1000.9 hPa SSW 16.3 km/h 30.6 km/h 94% 0.0 mm
12:37 7.0 °C 6.0 °C 1000.9 hPa WSW 16.6 km/h 25.3 km/h 94% 0.0 mm
12:42 7.0 °C 6.0 °C 999.9 hPa WSW 18.3 km/h 24.5 km/h 94% 0.0 mm
12:44 7.1 °C 6.0 °C 999.9 hPa WSW 22.4 km/h 25.6 km/h 93% 0.0 mm
12:48 7.2 °C 6.0 °C 999.9 hPa WSW 20.9 km/h 25.9 km/h 92% 0.0 mm
12:50 7.2 °C 6.0 °C 999.9 hPa WSW 20.9 km/h 27.0 km/h 92% 0.0 mm
12:55 7.2 °C 6.0 °C 999.9 hPa WSW 19.5 km/h 27.0 km/h 91% 0.0 mm
12:59 7.3 °C 6.0 °C 999.9 hPa SW 24.5 km/h 27.7 km/h 90% 0.0 mm
13:04 7.4 °C 6.0 °C 999.9 hPa SW 23.8 km/h 27.7 km/h 89% 0.0 mm
13:07 7.5 °C 6.0 °C 999.9 hPa SW 12.6 km/h 27.7 km/h 89% 0.0 mm
13:12 7.5 °C 6.0 °C 1000.9 hPa WSW 25.3 km/h 28.5 km/h 88% 0.0 mm
13:14 7.2 °C 6.0 °C 999.9 hPa WSW 19.5 km/h 27.0 km/h 91% 0.0 mm
13:15 7.4 °C 6.0 °C 1000.9 hPa SW 17.2 km/h 28.5 km/h 87% 0.0 mm
13:20 7.3 °C 5.0 °C 1000.9 hPa WSW 24.8 km/h 31.7 km/h 86% 0.0 mm
13:21 7.3 °C 5.0 °C 1000.9 hPa SW 28.5 km/h 31.7 km/h 86% 0.0 mm
13:25 7.2 °C 6.0 °C 999.9 hPa WSW 19.5 km/h 27.0 km/h 91% 0.0 mm
13:28 7.5 °C 6.0 °C 1000.9 hPa WSW 16.9 km/h 30.9 km/h 86% 0.0 mm
13:32 7.5 °C 6.0 °C 1000.9 hPa SSW 16.3 km/h 29.1 km/h 86% 0.0 mm
13:34 7.2 °C 6.0 °C 999.9 hPa WSW 19.5 km/h 27.0 km/h 91% 0.0 mm
13:38 7.4 °C 5.0 °C 1000.9 hPa WSW 21.9 km/h 32.3 km/h 85% 0.0 mm
13:40 7.2 °C 6.0 °C 999.9 hPa WSW 19.5 km/h 27.0 km/h 91% 0.0 mm
13:45 7.4 °C 5.0 °C 1000.9 hPa SW 15.4 km/h 32.3 km/h 84% 0.0 mm
13:50 7.5 °C 6.0 °C 1000.9 hPa SW 16.9 km/h 27.0 km/h 85% 0.0 mm
13:52 7.2 °C 6.0 °C 999.9 hPa WSW 19.5 km/h 27.0 km/h 91% 0.0 mm
13:57 7.6 °C 6.0 °C 1000.9 hPa SSW 16.9 km/h 27.7 km/h 86% 0.0 mm
14:00 7.7 °C 6.0 °C 1000.9 hPa SW 17.7 km/h 31.4 km/h 86% 0.0 mm
14:05 7.6 °C 6.0 °C 1000.9 hPa WSW 27.7 km/h 31.4 km/h 85% 0.0 mm
14:06 7.2 °C 6.0 °C 999.9 hPa WSW 19.5 km/h 27.0 km/h 91% 0.0 mm
14:10 7.2 °C 6.0 °C 999.9 hPa WSW 19.5 km/h 27.0 km/h 91% 0.0 mm
14:12 7.2 °C 6.0 °C 999.9 hPa WSW 19.5 km/h 27.0 km/h 91% 0.0 mm
14:16 7.7 °C 5.0 °C 999.9 hPa WSW 20.1 km/h 29.1 km/h 84% 0.0 mm
14:19 7.8 °C 5.0 °C 999.9 hPa SW 13.0 km/h 29.1 km/h 84% 0.0 mm
14:23 7.8 °C 5.0 °C 999.9 hPa SSW 14.0 km/h 29.1 km/h 83% 0.0 mm
14:24 7.2 °C 6.0 °C 999.9 hPa WSW 19.5 km/h 27.0 km/h 91% 0.0 mm
14:26 7.8 °C 5.0 °C 999.9 hPa WSW 16.9 km/h 21.6 km/h 83% 0.0 mm
14:31 7.7 °C 5.0 °C 999.9 hPa SW 19.1 km/h 27.4 km/h 83% 0.0 mm
14:32 7.7 °C 5.0 °C 999.9 hPa SSW 18.3 km/h 27.4 km/h 83% 0.0 mm
14:33 7.7 °C 5.0 °C 999.9 hPa WSW 21.2 km/h 27.4 km/h 83% 0.0 mm
14:38 7.5 °C 5.0 °C 999.9 hPa WSW 16.9 km/h 27.4 km/h 83% 0.0 mm
14:40 7.2 °C 6.0 °C 999.9 hPa WSW 19.5 km/h 27.0 km/h 91% 0.0 mm
14:41 7.2 °C 6.0 °C 999.9 hPa WSW 19.5 km/h 27.0 km/h 91% 0.0 mm
14:46 7.5 °C 5.0 °C 998.9 hPa WSW 20.6 km/h 24.8 km/h 83% 0.0 mm
14:48 7.5 °C 5.0 °C 998.9 hPa WSW 23.3 km/h 24.8 km/h 83% 0.0 mm
14:51 7.6 °C 5.0 °C 998.9 hPa SW 16.9 km/h 24.8 km/h 83% 0.0 mm
14:53 7.6 °C 5.0 °C 998.9 hPa SSW 17.7 km/h 25.6 km/h 83% 0.0 mm
14:58 7.2 °C 6.0 °C 999.9 hPa WSW 19.5 km/h 27.0 km/h 91% 0.0 mm
14:59 7.2 °C 6.0 °C 999.9 hPa WSW 19.5 km/h 27.0 km/h 91% 0.0 mm
15:00 7.7 °C 5.0 °C 998.9 hPa SW 17.7 km/h 26.2 km/h 83% 0.0 mm
15:05 7.2 °C 6.0 °C 999.9 hPa WSW 19.5 km/h 27.0 km/h 91% 0.0 mm
15:08 7.2 °C 6.0 °C 999.9 hPa WSW 19.5 km/h 27.0 km/h 91% 0.0 mm
15:12 7.2 °C 6.0 °C 999.9 hPa WSW 19.5 km/h 27.0 km/h 91% 0.0 mm
15:13 7.7 °C 5.0 °C 998.9 hPa SSW 13.0 km/h 21.2 km/h 82% 0.0 mm
15:18 7.2 °C 6.0 °C 999.9 hPa WSW 19.5 km/h 27.0 km/h 91% 0.0 mm
15:23 7.7 °C 5.0 °C 998.9 hPa WSW 12.2 km/h 20.6 km/h 81% 0.0 mm
15:25 7.8 °C 5.0 °C 998.9 hPa SSW 16.3 km/h 20.6 km/h 81% 0.0 mm
15:30 7.2 °C 6.0 °C 999.9 hPa WSW 19.5 km/h 27.0 km/h 91% 0.0 mm
15:33 7.8 °C 5.0 °C 998.9 hPa SW 20.9 km/h 24.8 km/h 81% 0.0 mm
15:36 7.8 °C 5.0 °C 998.9 hPa SW 20.9 km/h 24.8 km/h 81% 0.0 mm
15:40 7.2 °C 6.0 °C 999.9 hPa WSW 19.5 km/h 27.0 km/h 91% 0.0 mm
15:42 7.2 °C 6.0 °C 999.9 hPa WSW 19.5 km/h 27.0 km/h 91% 0.0 mm
15:45 7.2 °C 6.0 °C 999.9 hPa WSW 19.5 km/h 27.0 km/h 91% 0.0 mm
15:50 7.2 °C 6.0 °C 999.9 hPa WSW 19.5 km/h 27.0 km/h 91% 0.0 mm
15:52 7.2 °C 6.0 °C 999.9 hPa WSW 19.5 km/h 27.0 km/h 91% 0.0 mm
15:57 7.8 °C 5.0 °C 998.9 hPa SW 20.9 km/h 24.8 km/h 81% 0.0 mm
15:58 7.2 °C 6.0 °C 999.9 hPa WSW 19.5 km/h 27.0 km/h 91% 0.0 mm
16:03 7.2 °C 6.0 °C 999.9 hPa WSW 19.5 km/h 27.0 km/h 91% 0.0 mm
16:04 7.8 °C 5.0 °C 998.9 hPa SW 20.9 km/h 24.8 km/h 81% 0.0 mm
16:05 7.2 °C 6.0 °C 999.9 hPa WSW 19.5 km/h 27.0 km/h 91% 0.0 mm
16:10 7.8 °C 5.0 °C 998.9 hPa SW 20.9 km/h 24.8 km/h 81% 0.0 mm
16:11 7.8 °C 5.0 °C 998.9 hPa SW 20.9 km/h 24.8 km/h 81% 0.0 mm
16:12 7.2 °C 6.0 °C 999.9 hPa WSW 19.5 km/h 27.0 km/h 91% 0.0 mm
16:16 7.2 °C 6.0 °C 999.9 hPa WSW 19.5 km/h 27.0 km/h 91% 0.0 mm
16:21 7.8 °C 5.0 °C 998.9 hPa SW 20.9 km/h 24.8 km/h 81% 0.0 mm
16:23 7.8 °C 5.0 °C 998.9 hPa SW 20.9 km/h 24.8 km/h 81% 0.0 mm
16:27 7.8 °C 5.0 °C 998.9 hPa SW 20.9 km/h 24.8 km/h 81% 0.0 mm
16:32 7.8 °C 5.0 °C 998.9 hPa SW 20.9 km/h 24.8 km/h 81% 0.0 mm
16:33 7.8 °C 5.0 °C 998.9 hPa SW 20.9 km/h 24.8 km/h 81% 0.0 mm
16:34 7.8 °C 5.0 °C 998.9 hPa SW 20.9 km/h 24.8 km/h 81% 0.0 mm
16:39 7.2 °C 6.0 °C 999.9 hPa WSW 19.5 km/h 27.0 km/h 91% 0.0 mm
16:45 7.2 °C 6.0 °C 999.9 hPa WSW 19.5 km/h 27.0 km/h 91% 0.0 mm
16:46 7.2 °C 6.0 °C 999.9 hPa WSW 19.5 km/h 27.0 km/h 91% 0.0 mm
16:51 7.8 °C 5.0 °C 998.9 hPa SW 20.9 km/h 24.8 km/h 81% 0.0 mm
16:54 7.2 °C 6.0 °C 999.9 hPa WSW 19.5 km/h 27.0 km/h 91% 0.0 mm
16:59 7.2 °C 6.0 °C 999.9 hPa WSW 19.5 km/h 27.0 km/h 91% 0.0 mm
17:00 7.2 °C 6.0 °C 999.9 hPa WSW 19.5 km/h 27.0 km/h 91% 0.0 mm
17:01 7.2 °C 6.0 °C 999.9 hPa WSW 19.5 km/h 27.0 km/h 91% 0.0 mm
17:06 7.8 °C 5.0 °C 998.9 hPa SW 20.9 km/h 24.8 km/h 81% 0.0 mm
17:08 7.2 °C 6.0 °C 999.9 hPa WSW 19.5 km/h 27.0 km/h 91% 0.0 mm
17:11 7.8 °C 5.0 °C 998.9 hPa SW 20.9 km/h 24.8 km/h 81% 0.0 mm
17:16 7.2 °C 6.0 °C 999.9 hPa WSW 19.5 km/h 27.0 km/h 91% 0.0 mm
17:19 7.8 °C 5.0 °C 998.9 hPa SW 20.9 km/h 24.8 km/h 81% 0.0 mm
17:21 7.8 °C 5.0 °C 998.9 hPa SW 20.9 km/h 24.8 km/h 81% 0.0 mm
17:26 7.2 °C 6.0 °C 999.9 hPa WSW 19.5 km/h 27.0 km/h 91% 0.0 mm
17:27 7.8 °C 5.0 °C 998.9 hPa SW 20.9 km/h 24.8 km/h 81% 0.0 mm
17:31 7.8 °C 5.0 °C 998.9 hPa SW 20.9 km/h 24.8 km/h 81% 0.0 mm
17:32 7.8 °C 5.0 °C 998.9 hPa SW 20.9 km/h 24.8 km/h 81% 0.0 mm
17:33 7.2 °C 6.0 °C 999.9 hPa WSW 19.5 km/h 27.0 km/h 91% 0.0 mm
17:38 7.2 °C 6.0 °C 999.9 hPa WSW 19.5 km/h 27.0 km/h 91% 0.0 mm
17:43 7.2 °C 6.0 °C 999.9 hPa WSW 19.5 km/h 27.0 km/h 91% 0.0 mm
17:48 7.2 °C 6.0 °C 999.9 hPa WSW 19.5 km/h 27.0 km/h 91% 0.0 mm
17:49 7.2 °C 6.0 °C 999.9 hPa WSW 19.5 km/h 27.0 km/h 91% 0.0 mm
17:51 7.2 °C 6.0 °C 999.9 hPa WSW 19.5 km/h 27.0 km/h 91% 0.0 mm
17:56 7.2 °C 6.0 °C 999.9 hPa WSW 19.5 km/h 27.0 km/h 91% 0.0 mm
17:57 7.2 °C 6.0 °C 999.9 hPa WSW 19.5 km/h 27.0 km/h 91% 0.0 mm
18:02 7.2 °C 6.0 °C 999.9 hPa WSW 19.5 km/h 27.0 km/h 91% 0.0 mm
18:03 7.2 °C 6.0 °C 999.9 hPa WSW 19.5 km/h 27.0 km/h 91% 0.0 mm
18:08 7.2 °C 6.0 °C 999.9 hPa WSW 19.5 km/h 27.0 km/h 91% 0.0 mm
18:10 7.2 °C 6.0 °C 999.9 hPa WSW 19.5 km/h 27.0 km/h 91% 0.0 mm
18:13 7.8 °C 5.0 °C 998.9 hPa SW 20.9 km/h 24.8 km/h 81% 0.0 mm
18:18 7.8 °C 5.0 °C 998.9 hPa SW 20.9 km/h 24.8 km/h 81% 0.0 mm
18:19 7.8 °C 5.0 °C 998.9 hPa SW 20.9 km/h 24.8 km/h 81% 0.0 mm
18:23 7.8 °C 5.0 °C 998.9 hPa SW 20.9 km/h 24.8 km/h 81% 0.0 mm
18:28 7.8 °C 5.0 °C 998.9 hPa SW 20.9 km/h 24.8 km/h 81% 0.0 mm
18:29 7.8 °C 5.0 °C 998.9 hPa SW 20.9 km/h 24.8 km/h 81% 0.0 mm
18:34 7.8 °C 5.0 °C 998.9 hPa SW 20.9 km/h 24.8 km/h 81% 0.0 mm
18:37 7.2 °C 6.0 °C 999.9 hPa WSW 19.5 km/h 27.0 km/h 91% 0.0 mm
18:39 7.2 °C 6.0 °C 999.9 hPa WSW 19.5 km/h 27.0 km/h 91% 0.0 mm
18:42 7.2 °C 6.0 °C 999.9 hPa WSW 19.5 km/h 27.0 km/h 91% 0.0 mm
18:45 7.2 °C 6.0 °C 999.9 hPa WSW 19.5 km/h 27.0 km/h 91% 0.0 mm
18:48 7.8 °C 5.0 °C 998.9 hPa SW 20.9 km/h 24.8 km/h 81% 0.0 mm
18:50 7.2 °C 6.0 °C 999.9 hPa WSW 19.5 km/h 27.0 km/h 91% 0.0 mm
18:51 7.2 °C 6.0 °C 999.9 hPa WSW 19.5 km/h 27.0 km/h 91% 0.0 mm
18:56 7.8 °C 5.0 °C 998.9 hPa SW 20.9 km/h 24.8 km/h 81% 0.0 mm
18:58 7.2 °C 6.0 °C 999.9 hPa WSW 19.5 km/h 27.0 km/h 91% 0.0 mm
19:02 7.2 °C 6.0 °C 999.9 hPa WSW 19.5 km/h 27.0 km/h 91% 0.0 mm
19:05 7.8 °C 5.0 °C 998.9 hPa SW 20.9 km/h 24.8 km/h 81% 0.0 mm
19:07 7.8 °C 5.0 °C 998.9 hPa SW 20.9 km/h 24.8 km/h 81% 0.0 mm
19:09 7.2 °C 6.0 °C 999.9 hPa WSW 19.5 km/h 27.0 km/h 91% 0.0 mm
19:14 7.2 °C 6.0 °C 999.9 hPa WSW 19.5 km/h 27.0 km/h 91% 0.0 mm
19:17 7.8 °C 5.0 °C 998.9 hPa SW 20.9 km/h 24.8 km/h 81% 0.0 mm
19:22 7.8 °C 5.0 °C 998.9 hPa SW 20.9 km/h 24.8 km/h 81% 0.0 mm
19:24 7.2 °C 6.0 °C 999.9 hPa WSW 19.5 km/h 27.0 km/h 91% 0.0 mm
19:29 7.8 °C 5.0 °C 998.9 hPa SW 20.9 km/h 24.8 km/h 81% 0.0 mm
19:30 7.2 °C 6.0 °C 999.9 hPa WSW 19.5 km/h 27.0 km/h 91% 0.0 mm
19:35 7.8 °C 5.0 °C 998.9 hPa SW 20.9 km/h 24.8 km/h 81% 0.0 mm
19:37 7.8 °C 5.0 °C 998.9 hPa SW 20.9 km/h 24.8 km/h 81% 0.0 mm
19:41 7.2 °C 6.0 °C 999.9 hPa WSW 19.5 km/h 27.0 km/h 91% 0.0 mm
19:43 7.2 °C 6.0 °C 999.9 hPa WSW 19.5 km/h 27.0 km/h 91% 0.0 mm
19:48 7.8 °C 5.0 °C 998.9 hPa SW 20.9 km/h 24.8 km/h 81% 0.0 mm
19:49 7.8 °C 5.0 °C 998.9 hPa SW 20.9 km/h 24.8 km/h 81% 0.0 mm
19:52 7.8 °C 5.0 °C 998.9 hPa SW 20.9 km/h 24.8 km/h 81% 0.0 mm
19:55 7.8 °C 5.0 °C 998.9 hPa SW 20.9 km/h 24.8 km/h 81% 0.0 mm
20:00 7.2 °C 6.0 °C 999.9 hPa WSW 19.5 km/h 27.0 km/h 91% 0.0 mm
20:01 7.8 °C 5.0 °C 998.9 hPa SW 20.9 km/h 24.8 km/h 81% 0.0 mm
20:02 7.8 °C 5.0 °C 998.9 hPa SW 20.9 km/h 24.8 km/h 81% 0.0 mm
20:06 7.8 °C 5.0 °C 998.9 hPa SW 20.9 km/h 24.8 km/h 81% 0.0 mm
20:07 7.2 °C 6.0 °C 999.9 hPa WSW 19.5 km/h 27.0 km/h 91% 0.0 mm
20:08 7.8 °C 5.0 °C 998.9 hPa SW 20.9 km/h 24.8 km/h 81% 0.0 mm
20:13 7.2 °C 6.0 °C 999.9 hPa WSW 19.5 km/h 27.0 km/h 91% 0.0 mm
20:15 7.8 °C 5.0 °C 998.9 hPa SW 20.9 km/h 24.8 km/h 81% 0.0 mm
20:18 7.2 °C 6.0 °C 999.9 hPa WSW 19.5 km/h 27.0 km/h 91% 0.0 mm
20:20 7.8 °C 5.0 °C 998.9 hPa SW 20.9 km/h 24.8 km/h 81% 0.0 mm
20:21 7.2 °C 6.0 °C 999.9 hPa WSW 19.5 km/h 27.0 km/h 91% 0.0 mm
20:26 7.2 °C 6.0 °C 999.9 hPa WSW 19.5 km/h 27.0 km/h 91% 0.0 mm
20:31 7.8 °C 5.0 °C 998.9 hPa SW 20.9 km/h 24.8 km/h 81% 0.0 mm
20:36 7.2 °C 6.0 °C 999.9 hPa WSW 19.5 km/h 27.0 km/h 91% 0.0 mm
20:37 7.8 °C 5.0 °C 998.9 hPa SW 20.9 km/h 24.8 km/h 81% 0.0 mm
20:39 7.2 °C 6.0 °C 999.9 hPa WSW 19.5 km/h 27.0 km/h 91% 0.0 mm
20:43 7.2 °C 6.0 °C 999.9 hPa WSW 19.5 km/h 27.0 km/h 91% 0.0 mm
20:45 7.2 °C 6.0 °C 999.9 hPa WSW 19.5 km/h 27.0 km/h 91% 0.0 mm
20:48 7.8 °C 5.0 °C 998.9 hPa SW 20.9 km/h 24.8 km/h 81% 0.0 mm
20:53 7.2 °C 6.0 °C 999.9 hPa WSW 19.5 km/h 27.0 km/h 91% 0.0 mm
20:57 7.2 °C 6.0 °C 999.9 hPa WSW 19.5 km/h 27.0 km/h 91% 0.0 mm
20:59 7.8 °C 5.0 °C 998.9 hPa SW 20.9 km/h 24.8 km/h 81% 0.0 mm
21:03 7.8 °C 5.0 °C 998.9 hPa SW 20.9 km/h 24.8 km/h 81% 0.0 mm
21:07 7.8 °C 5.0 °C 998.9 hPa SW 20.9 km/h 24.8 km/h 81% 0.0 mm
21:09 7.2 °C 6.0 °C 999.9 hPa WSW 19.5 km/h 27.0 km/h 91% 0.0 mm
21:13 7.2 °C 6.0 °C 999.9 hPa WSW 19.5 km/h 27.0 km/h 91% 0.0 mm
21:16 7.8 °C 5.0 °C 998.9 hPa SW 20.9 km/h 24.8 km/h 81% 0.0 mm
21:19 7.8 °C 5.0 °C 998.9 hPa SW 20.9 km/h 24.8 km/h 81% 0.0 mm
21:24 7.8 °C 5.0 °C 998.9 hPa SW 20.9 km/h 24.8 km/h 81% 0.0 mm
21:29 7.2 °C 6.0 °C 999.9 hPa WSW 19.5 km/h 27.0 km/h 91% 0.0 mm
21:30 7.8 °C 5.0 °C 998.9 hPa SW 20.9 km/h 24.8 km/h 81% 0.0 mm
21:36 7.2 °C 6.0 °C 999.9 hPa WSW 19.5 km/h 27.0 km/h 91% 0.0 mm
21:41 7.8 °C 5.0 °C 998.9 hPa SW 20.9 km/h 24.8 km/h 81% 0.0 mm
21:43 7.2 °C 6.0 °C 999.9 hPa WSW 19.5 km/h 27.0 km/h 91% 0.0 mm
21:48 7.8 °C 5.0 °C 998.9 hPa SW 20.9 km/h 24.8 km/h 81% 0.0 mm
21:50 7.8 °C 5.0 °C 998.9 hPa SW 20.9 km/h 24.8 km/h 81% 0.0 mm
21:53 7.8 °C 5.0 °C 998.9 hPa SW 20.9 km/h 24.8 km/h 81% 0.0 mm
21:56 7.2 °C 6.0 °C 999.9 hPa WSW 19.5 km/h 27.0 km/h 91% 0.0 mm
22:01 7.2 °C 6.0 °C 999.9 hPa WSW 19.5 km/h 27.0 km/h 91% 0.0 mm
22:02 7.8 °C 5.0 °C 998.9 hPa SW 20.9 km/h 24.8 km/h 81% 0.0 mm
22:04 7.2 °C 6.0 °C 999.9 hPa WSW 19.5 km/h 27.0 km/h 91% 0.0 mm
22:08 7.2 °C 6.0 °C 999.9 hPa WSW 19.5 km/h 27.0 km/h 91% 0.0 mm
22:13 7.2 °C 6.0 °C 999.9 hPa WSW 19.5 km/h 27.0 km/h 91% 0.0 mm
22:14 7.8 °C 5.0 °C 998.9 hPa SW 20.9 km/h 24.8 km/h 81% 0.0 mm
22:18 7.8 °C 5.0 °C 998.9 hPa SW 20.9 km/h 24.8 km/h 81% 0.0 mm
22:19 7.8 °C 5.0 °C 998.9 hPa SW 20.9 km/h 24.8 km/h 81% 0.0 mm
22:24 7.8 °C 5.0 °C 998.9 hPa SW 20.9 km/h 24.8 km/h 81% 0.0 mm
22:26 7.2 °C 6.0 °C 999.9 hPa WSW 19.5 km/h 27.0 km/h 91% 0.0 mm
22:29 7.2 °C 6.0 °C 999.9 hPa WSW 19.5 km/h 27.0 km/h 91% 0.0 mm
22:34 7.8 °C 5.0 °C 998.9 hPa SW 20.9 km/h 24.8 km/h 81% 0.0 mm
22:39 7.8 °C 5.0 °C 998.9 hPa SW 20.9 km/h 24.8 km/h 81% 0.0 mm
22:40 7.8 °C 5.0 °C 998.9 hPa SW 20.9 km/h 24.8 km/h 81% 0.0 mm
22:45 7.8 °C 5.0 °C 998.9 hPa SW 20.9 km/h 24.8 km/h 81% 0.0 mm
22:46 7.8 °C 5.0 °C 998.9 hPa SW 20.9 km/h 24.8 km/h 81% 0.0 mm
22:49 7.8 °C 5.0 °C 998.9 hPa SW 20.9 km/h 24.8 km/h 81% 0.0 mm
22:50 7.2 °C 6.0 °C 999.9 hPa WSW 19.5 km/h 27.0 km/h 91% 0.0 mm
22:54 7.8 °C 5.0 °C 998.9 hPa SW 20.9 km/h 24.8 km/h 81% 0.0 mm
22:57 7.8 °C 5.0 °C 998.9 hPa SW 20.9 km/h 24.8 km/h 81% 0.0 mm
22:59 7.2 °C 6.0 °C 999.9 hPa WSW 19.5 km/h 27.0 km/h 91% 0.0 mm
23:04 7.2 °C 6.0 °C 999.9 hPa WSW 19.5 km/h 27.0 km/h 91% 0.0 mm
23:05 7.2 °C 6.0 °C 999.9 hPa WSW 19.5 km/h 27.0 km/h 91% 0.0 mm
23:10 7.2 °C 6.0 °C 999.9 hPa WSW 19.5 km/h 27.0 km/h 91% 0.0 mm
23:13 7.2 °C 6.0 °C 999.9 hPa WSW 19.5 km/h 27.0 km/h 91% 0.0 mm
23:16 7.2 °C 6.0 °C 999.9 hPa WSW 19.5 km/h 27.0 km/h 91% 0.0 mm
23:19 7.2 °C 6.0 °C 999.9 hPa WSW 19.5 km/h 27.0 km/h 91% 0.0 mm
23:21 7.2 °C 6.0 °C 999.9 hPa WSW 19.5 km/h 27.0 km/h 91% 0.0 mm
23:26 7.8 °C 5.0 °C 998.9 hPa SW 20.9 km/h 24.8 km/h 81% 0.0 mm
23:31 7.8 °C 5.0 °C 998.9 hPa SW 20.9 km/h 24.8 km/h 81% 0.0 mm
23:33 7.2 °C 6.0 °C 999.9 hPa WSW 19.5 km/h 27.0 km/h 91% 0.0 mm
23:38 7.2 °C 6.0 °C 999.9 hPa WSW 19.5 km/h 27.0 km/h 91% 0.0 mm
23:43 7.2 °C 6.0 °C 999.9 hPa WSW 19.5 km/h 27.0 km/h 91% 0.0 mm
23:45 7.2 °C 6.0 °C 999.9 hPa WSW 19.5 km/h 27.0 km/h 91% 0.0 mm
23:48 7.8 °C 5.0 °C 998.9 hPa SW 20.9 km/h 24.8 km/h 81% 0.0 mm
23:53 7.8 °C 5.0 °C 998.9 hPa SW 20.9 km/h 24.8 km/h 81% 0.0 mm
23:54 7.8 °C 5.0 °C 998.9 hPa SW 20.9 km/h 24.8 km/h 81% 0.0 mm
23:58 7.8 °C 5.0 °C 998.9 hPa SW 20.9 km/h 24.8 km/h 81% 0.0 mm
Données Historique de Météo Turbie

Mise a jour : 20/05/2018 19:10:12
Généré par Cumulus 1.9.4 (1099)